Погода в Уржумке

Россия / Республика Марий Эл     56°09′37″N   47°28′55″E
темп.,
°C
ветер,
м/с
пор.,
м/с
влажн.,
%
обл.,
%
осадки,
мм/ч
давл.,
гПа
погр.,
м
5 марта, пт
пт500:00−9з36950 0.0 998106
03:00−11зсз239731 0.0 100080
06:00−12сз2297100 0.1 100121
09:00−10зсз139694 0.1 1002164
12:00−5з249296 0.0 1004486
15:00−5з469095 0.1 1005741
18:00−8зюз369494 0.1 1007121
21:00−11зюз239550 0.1 100948
6 марта, сб
сб600:00−8з259796 1.6 1009280
03:00−12зсз239797 1.8 101171
06:00−14зсз359797 0.2 1013146
09:00−12зсз359594 0.3 1014294
12:00−9з358881 0.0 1015575
15:00−8зюз368785 0.1 1013677
18:00−13юз359361 0.0 1013103
21:00−14зюз239668 0.1 101373
7 марта, вс
вс700:00−16з229876 0.0 101121
03:00−18з229881 0.1 101120
06:00−20зюз2210077 0.0 101120
09:00−15юз249461 0.0 1009193
12:00−10ю469012 0.0 1007401
15:00−7ю5108954 0.0 1004699
18:00−7ю61293100 0.7 1000922
21:00−7ю61393100 1.4 997919
8 марта, пн
пн800:00−6ю51294100 0.9 993813
03:00−5з51093100 2.2 993816
06:00−11з41090100 0.1 994311
09:00−10ююз379267 0.1 996270
12:00−7ююз4890100 0.4 996751
15:00−6юз4790100 0.8 995826
18:00−8юв1296100 0.2 99521
21:00−8ссв1297100 0.6 99647
9 марта, вт
вт900:00−11зсз3596100 0.5 998133
03:00−15зсз349797 0.6 100293
06:00−17зсз369793 0.1 1005137
09:00−14сз359591 0.1 1008311
12:00−11сз2492100 0.1 1010508
15:00−10сз3491100 0.2 1011591
18:00−14ссз2596100 0.3 1011158
21:00−15сз2696100 0.3 1013209